Regional Weather Roundup
Issued by NWS

Home | Current Version | Previous Version | Text Only | Print | Product List | Glossary On
Versions: 1 2 3 4 5 6 7 8 9 10 11 12 13 14 15 16 17 18 19 20 21 22 23 24 25 26 27 28 29 30 31 32 33 34 35 36 37 38 39 40 41 42 43 44 45 46 47 48 49 50
000
ASUS44 KFWD 212301
RWRTX
NORTH TEXAS HOURLY WEATHER ROUNDUP
NATIONAL WEATHER SERVICE FORT WORTH TX
600 PM CDT SAT APR 21 2018

NOTE: "FAIR" INDICATES FEW OR NO CLOUDS BELOW 12,000 FEET WITH NO
SIGNIFICANT WEATHER AND/OR OBSTRUCTIONS TO VISIBILITY.

TXZ118-119-220000-
DALLAS/FORT WORTH METROPLEX

CITY           SKY/WX    TMP DP  RH WIND       PRES   REMARKS
DFW AIRPORT    CLOUDY    63  63 100 E9        29.87F FOG
DALLAS LOVE    CLOUDY    65  62  90 E8        29.90F
FTW MEACHAM    TSTM      65  63  93 MISG      29.91R VSB 1/4
DAL-EXECUTIVE  CLOUDY    66  62  87 E12       29.89F
FTW-ALLIANCE   TSTM      62  61  96 N12       29.91R FOG
FTW-NAS-JRB    HVY RAIN  63  60  90 E8G32     29.90R VSB 1
FTW-SPINKS     CLOUDY    66  63  88 E7        29.87F
ARLINGTON      CLOUDY    66  63  90 E10       29.86F
GRAND PRAIRIE  CLOUDY    66  61  82 E9        29.89F
ADDISON        PTSUNNY   64  61  88 E6        29.92S FOG
MESQUITE       CLOUDY    63  61  94 CALM      29.93R FOG
LANCASTER      CLOUDY    63  62  94 NE9       29.92S FOG
$$

TXZ091>094-102>105-117-120-121-131>134-220000-
NORTH CENTRAL TEXAS

CITY           SKY/WX    TMP DP  RH WIND       PRES   REMARKS
SHRMAN/DENISON CLOUDY    56  56  97 NE5       29.97R FOG
GAINESVILLE    LGT RAIN  54  53  95 N10       29.98S
BOWIE          DRIZZLE   52  51  97 N8        29.97S
BRIDGEPORT     LGT RAIN  56  56 100 N13G22    29.96R
DECATUR        LGT RAIN  56  56  97 N10G16    29.95R VSB 1
DENTON         CLOUDY    58  58 100 NE14      29.92S FOG
MCKINNEY       CLOUDY    61  61 100 E5        29.94R
BONHAM         CLOUDY    57  56  97 E8        29.97R FOG
ROCKWALL       DRIZZLE   62  62 100 MISG      29.93S
TERRELL        CLOUDY    63  60  90 VRB3      29.94R
WAXAHACHIE     CLOUDY    66  66 100 CALM      29.91R FOG
CLEBURNE         N/A     68  64  88 S16       29.85S
GRANBURY       HVY RAIN  61  58  88 N14G21    29.90R
$$

TXZ083>090-098>101-113>116-127>130-139>142-154-155-220000-
WESTERN NORTH TEXAS

CITY           SKY/WX    TMP DP  RH WIND       PRES   REMARKS
WICHITA FALLS  CLOUDY    54  50  86 NE12      30.00R
WF-KICKAPOO    CLOUDY    55  50  85 NE12G18   30.03S
VERNON         CLOUDY    60  50  71 N16G22    30.04R
ABILENE        FAIR      64  53  67 N17       29.97R
ABILENE-DYESS  MOSUNNY   66  50  55 N17       29.96R
BRECKENRIDGE   CLOUDY    60  51  70 N16G28    29.97R
EASTLAND       FAIR      66  54  65 N14G28    29.93R
RANGER         PTSUNNY   65  56  73 N14G24    29.92R
MINERAL WELLS  PTSUNNY   62  59  90 N21G26    29.91R
STEPHENVILLE   PTSUNNY   69  55  60 N24G35    29.90R
COMANCHE       FAIR      80  50  35 N24G31    29.87R
COLEMAN        FAIR      80  49  34 N26G33    29.90R
BRADY          FAIR      82  27  13 W16G25    29.89R
$$

TXZ143>147-156>162-174-175-220000-
CENTRAL TEXAS

CITY           SKY/WX    TMP DP  RH WIND       PRES   REMARKS
WACO           CLOUDY    70  65  84 S12       29.89F
WACO-TSTC      CLOUDY    70  64  83 S8        29.89F
WACO-MCGREGOR  CLOUDY    69  66  90 S10       29.89F
HILLSBORO      CLOUDY    69  66  92 S16       29.86F
CORSICANA      PTSUNNY   66  64  93 SE8       29.90F
MEXIA          DRIZZLE   66  65  96 SE3       29.89F
HEARNE         CLOUDY    69  67  95 SE8       29.90F
CAMERON        DRIZZLE   68  66  94 CALM      29.89F
TEMPLE         PTSUNNY   71  67  87 S10       29.89F
KILLEEN        MOSUNNY   72  63  73 SE8       29.89S
KILLEEN-SKYLRK CLOUDY    74  66  76 S10       29.89S
GATESVILLE     FAIR      73  64  73 S12       29.89S
HAMILTON       FAIR      78  63  60 S16       29.86S
LAMPASAS       FAIR      77  63  61 SE6       29.87S
$$

TXZ095>097-106>112-122>126-135>138-148>153-164>167-220000-
EAST TEXAS

CITY           SKY/WX    TMP DP  RH WIND       PRES   REMARKS
PARIS          LGT RAIN  57  56  96 E10       29.97R
SULPHUR SPRNGS LGT RAIN  60  59  99 E3        29.98R
MOUNT PLEASANT CLOUDY    58  58  98 NE7       29.97F
GILMER         LGT RAIN  59  58  99 NE5       29.94S
MINEOLA        LGT RAIN  59  59 100 E5        29.94S FOG
TYLER          RAIN      63  62  97 SE3       29.91F FOG
LONGVIEW       LGT RAIN  63  62  97 SE7       29.91F FOG
MARSHALL       CLOUDY    63  60  91 CALM      29.96S
ATHENS         CLOUDY    63  63 100 CALM      29.91F FOG
PALESTINE      RAIN      65  64  94 CALM      29.91F
JACKSONVILLE   LGT RAIN  65  65 100 SE9       29.92F
CENTER         RAIN      64  62  94 SE5       29.94S
NACOGDOCHES    LGT RAIN  67  65  93 SE7       29.92F
LUFKIN         LGT RAIN  68  66  93 SE8       29.92F
$$

SUPPLEMENTAL OBSERVATIONS (NWS FORT WORTH AREA)

CITY           SKY/WX    TMP DP  RH WIND       PRES   REMARKS
$$

SUPPLEMENTAL OBSERVATIONS (NWS NORMAN AREA)

CITY           SKY/WX    TMP DP  RH WIND       PRES   REMARKS
GOODLETT         N/A     59  46  62 N13       30.04R
ODELL            N/A     57  49  76 N13       30.05R
CROWELL          N/A     60  49  66 N9        30.04R
KNOX CITY        N/A     63  46  52 N15G21    30.02R
SEYMOUR          N/A     60  51  70 N12       30.02R
$$

SUPPLEMENTAL OBSERVATIONS (NWS SAN ANGELO AREA)

CITY           SKY/WX    TMP DP  RH WIND       PRES   REMARKS
WEINERT          N/A     61  48  61 N17       30.02R
HASKELL          N/A     63  46  54 N23G29    30.00R
THROCKMORTON     N/A     58  51  76 N13G21    30.01R
STAMFORD         N/A     65  48  55 N24       30.00R
CLYDE            N/A     61  53  74 N15       29.99R
$$

SUPPLEMENTAL OBSERVATIONS (NWS SHREVEPORT AREA)

CITY           SKY/WX    TMP DP  RH WIND       PRES   REMARKS
$$

SUPPLEMENTAL OBSERVATIONS ARE A COLLECTION OF AUTOMATED INSTRUMENTS
THAT ARE MAINTAINED BY A VARIETY OF FEDERAL AND STATE AGENCIES.
CERTAIN ELEMENTS...SUCH AS HUMIDITY VALUES AND SUSTAINED WIND
SPEEDS...MAY BE APPROXIMATED.





USA.gov is the U.S. government's official web portal to all federal, state and local government web resources and services.